Regional Weather Roundup
Issued by NWS

Home | Current Version | Previous Version | Graphics & Text | Print | Product List | Glossary On
Versions: 1 2 3 4 5 6 7 8 9 10 11 12 13 14 15 16 17 18 19 20 21 22 23 24 25 26 27 28 29 30 31 32 33 34 35 36 37 38 39 40 41 42 43 44 45 46 47 48 49 50
000
ASUS45 KCYS 211110
RWRWY

WYOMING REGIONAL WEATHER ROUNDUP
NATIONAL WEATHER SERVICE CHEYENNE WY
500 AM MDT THU AUG 21 2014

NOTE:  "FAIR" INDICATES FEW OR NO CLOUDS BELOW 12,000 FEET
WITH NO SIGNIFICANT WEATHER AND/OR OBSTRUCTIONS TO VISIBILITY.

WYZ001-211200-
YELLOWSTONE NATIONAL PARK

CITY           SKY/WX    TMP DP  RH WIND       PRES   REMARKS
LK YELLOWSTONE   N/A     44  44 100 CALM      30.20F
W YELLOWSTONE  NOT AVBL

$$
WYZ002>013-054>058-071-098>099-211200-
NORTHERN WYOMING

CITY           SKY/WX    TMP DP  RH WIND       PRES   REMARKS
JACKSON        CLOUDY    50  50 100 CALM      30.14F
CODY           CLOUDY    57  46  67 CALM      30.03R
GREYBULL       CLOUDY    61  53  75 CALM      29.97R
WORLAND        PTCLDY    54  47  77 CALM      29.99R
SHERIDAN       PTCLDY    58  49  72 W8        29.97R
BUFFALO        CLEAR     57  47  69 NW6       30.02R
GILLETTE       CLOUDY    58  56  93 SW3       29.97R
HULETT         FAIR      59  54  82 MISG      29.96
NEWCASTLE      FAIR      64  48  55 MISG      29.97

$$
WYZ014>020-022>026-101>103-211200-
CENTRAL WYOMING

CITY           SKY/WX    TMP DP  RH WIND       PRES   REMARKS
BIG PINEY      MOCLDY    48  45  89 E7        30.18S
PINEDALE       PTSUNNY   43  43 100 CALM      30.19S
DUBOIS         FAIR      50  41  71 N10G21    30.12S
LANDER         MOCLDY    54  49  83 NW9       30.02R
RIVERTON       MOCLDY    58  41  53 NW6       30.04R
CASPER         PTCLDY    52  42  69 SW6       30.05R
DOUGLAS        MOCLDY    61  47  59 NW6       30.03R

$$
WYZ021-027>030-104>119-211200-
SOUTHERN WYOMING

CITY           SKY/WX    TMP DP  RH WIND       PRES   REMARKS
EVANSTON       CLOUDY    51  48  89 S8        30.17F
KEMMERER       PTSUNNY   48  46  93 SW5       30.19R
FORT BRIDGER     N/A     51  47  87 S10       30.20S
ROCK SPRINGS   MOCLDY    50  44  80 VRB3      30.17R
DIXON          FAIR      52  49  89 CALM      30.23F
RAWLINS        CLEAR     51  47  86 W9        30.18R
SARATOGA       FAIR      48  45  87 MISG      30.21S
LARAMIE        PTCLDY    50  42  74 SW6       30.17R
CHEYENNE       CLEAR     56  44  64 W8        30.10R
TORRINGTON     CLEAR     57  49  74 NW6       29.96R
PINE BLUFFS    FAIR      55  46  71 CALM      30.05R

$$



USA.gov is the U.S. government's official web portal to all federal, state and local government web resources and services.